Regional Weather Roundup
Issued by NWS Green Bay, WI

Home | Current Version | Previous Version | Graphics & Text | Print | Product List | Glossary Off
Versions: 1 2 3 4 5 6 7 8 9 10 11 12 13 14 15 16 17 18 19 20 21 22 23 24 25 26 27 28 29 30 31 32 33 34 35 36 37 38 39 40 41 42 43 44 45 46 47 48 49 50

000
ASUS43 KGRB 240311
RWRGRB

NORTH-CENTRAL AND NORTHEAST WISCONSIN REGIONAL WEATHER ROUNDUP
NATIONAL WEATHER SERVICE GREEN BAY WI
1000 PM CDT SUN APR 23 2017

WIZ005-009-010>012-018-019-240400-
NORTH CENTRAL WISCONSIN

CITY           SKY/WX    TMP DP  RH WIND       PRES   REMARKS
IRONWOOD       CLOUDY    35  27  72 E12       30.09F
MANITOWISH WTR PTCLDY    34  28  79 NE8       30.07F
ARBOR VITAE    CLEAR     39  32  75 E7        30.06S
EAGLE RIVER    CLEAR     36  27  71 E9        30.09S
LAND O LAKES   CLOUDY    33  25  73 E6        30.12R
RHINELANDER    CLEAR     39  31  72 E12       30.07R
PHILLIPS       PTCLDY    40  34  80 NE8G18    30.03S
ANTIGO         CLEAR     37  31  79 E16G22    30.08S
TOMAHAWK       CLEAR     40  32  72 E8        30.05S
MERRILL        CLEAR     44  35  72 SE12G18   30.05S
$$

WIZ013-073-240400-
NORTHEAST WISCONSIN

CITY           SKY/WX    TMP DP  RH WIND       PRES   REMARKS
IRON MOUNTAIN  CLOUDY    34  19  54 NE9       30.14R
MARINETTE      CLOUDY    38  26  62 E17       30.15S
OCONTO         MOCLDY    39  29  68 NE7       30.13S
$$

WIZ017-030-035>037-045-240400-
CENTRAL WISCONSIN

CITY           SKY/WX    TMP DP  RH WIND       PRES   REMARKS
MEDFORD        PTCLDY    46  38  73 E10G16    30.01R
WAUSAU         CLEAR     42  34  73 E17       30.05R
MOSINEE        CLEAR     43  36  75 E12G20    30.06R
MARSHFIELD     CLEAR     47  39  74 SE14      30.01R
WISC RAPIDS    CLEAR     47  41  80 SE9       30.05R
STEVENS POINT  CLEAR     40  34  80 E15G23    30.07R
WAUPACA        PTCLDY    43  36  75 E8        30.10R
SHAWANO        CLOUDY    41  31  68 E12       30.12R
CLINTONVILLE   CLOUDY    39  32  75 E13       30.11R
WAUTOMA        CLOUDY    43  37  79 E8        30.08R
$$

WIZ038-039-048-051-240400-
FOX VALLEY

CITY           SKY/WX    TMP DP  RH WIND       PRES   REMARKS
NWS GREEN BAY  MOCLDY    40  29  64 NE13      30.12R
APPLETON       PTCLDY    39  28  65 E10G18    30.09R
OSHKOSH        MOCLDY    40  32  73 E10       30.09R
FOND DU LAC    MOCLDY    40  32  73 E7        30.09R
$$

WIZ022-050-052-240400-
EAST CENTRAL WISCONSIN

CITY           SKY/WX    TMP DP  RH WIND       PRES   REMARKS
EPHRAIM        FAIR      37  27  67 NE7       30.14S
WASHINGTON ISL FAIR      36  22  56 NE9       30.16S
STURGEON BAY   PTCLDY    38  27  64 NE9       30.14S
MANITOWOC      PTCLDY    39  29  67 NE10      30.11S
SHEBOYGAN      CLOUDY    39  32  76 NE13      30.10S
$$

LMZ563-521-522-541>543-240400-
LAKESHORE

STATION/POSITION TIME  TEMP    WIND        PRES    VSBY  WAVE
                       AIR SEA DIR/SP/G                  HT/PER
                 (UTC) (F)     (DEG/KT/KT) (MB)    (MI)  (FT/S)
SHEBOYGAN LKSHOR 0300   39      20/ 16/ 18 1019.2F
KEWAUNEE LKSHORE 0248   39      50/ 12/ 19 1019.7R
NORTHPORT PIER   0240   38      30/  6/  9 1021.3R
N MID LAKE BUOY  0250   37 37   30/ 12/ 14 1022.6R         1/ 3
SISTER BAY LKSHO 0221   37      40/  8/  9   N/A
CHAMBERS ISLAND  0240   38      20/ 16/ 19 1020.7S
MENOMINEE LKSHOR 0248   39      40/ 19/ 22 1020.1R
$$




USA.gov is the U.S. government's official web portal to all federal, state and local government web resources and services.